Weather History for KGRR - February, 2013

Change the Weather History Date:

Wednesday, February 20, 2013

  Actual Average Record
Temperature  
Mean Temperature 20 °F 28 °F  
Max Temperature 23 °F 35 °F 61 °F (1930)
Min Temperature 16 °F 21 °F -13 °F (1966)
Degree Days  
Heating Degree Days 45 37  
Month to date heating degree days 839 780  
Since 1 July heating degree days 4205 4487  
Cooling Degree Days 0 0  
Month to date cooling degree days 0 0  
Year to date cooling degree days 0 0  
Moisture  
Dew Point 12 °F    
Average Humidity 70    
Maximum Humidity 77    
Minimum Humidity 62    
Precipitation  
Precipitation T in 0.07 in 1.40 in (1898)
Month to date precipitation 1.86 1.21  
Year to date precipitation 5.87 3.30  
Snow  
Snow T in 0.50 in 7.10 in (2011)
Month to date snowfall 22.3 11.0  
Since 1 July snowfall 46.8 61.0  
Snow Depth 2.00 in    
Sea Level Pressure  
Sea Level Pressure 30.19 in    
Wind  
Wind Speed 15 mph (NW)    
Max Wind Speed 20 mph    
Max Gust Speed 32 mph    
Visibility 8 miles    
Events Snow    
T = Trace of Precipitation, MM = Missing Value Source: NWS Daily Summary

Daily Weather History Graph

Daily Weather History Graph

Search for Another Location

Airport or City:

Trip Planner

Search our weather history database for the weather conditions in past years. The results will help you decide how hot, cold, wet, or windy it might be!

Date:

Astronomy

Feb. 20, 2013 Rise Set
Actual Time 7:31 AM EST 6:20 PM EST
Civil Twilight 7:02 AM EST 6:49 PM EST
Nautical Twilight 6:30 AM EST 7:22 PM EST
Astronomical Twilight 5:57 AM EST 7:55 PM EST
Moon 1:36 PM EST (2/20) 3:55 AM EST (2/20)
Length of Visible Light 11h 46m
Length of Day
10h 48m
Waxing Gibbous, 76% of the Moon is Illuminated
Feb 20
Waxing Gibbous
Feb 25
Full
Mar 4
Last Quarter
Mar 11
New
Mar 19
First Quarter

Hourly Weather History & Observations

Time (EST) Temp. Windchill Dew Point Humidity Pressure Visibility Wind Dir Wind Speed Gust Speed Precip Events Conditions
12:53 AM 17.1 °F 3.6 °F 12.0 °F 81% 30.02 in 5.0 mi WNW 12.7 mph 19.6 mph 0.00 in Snow Light Snow
1:53 AM 17.1 °F 2.0 °F 9.0 °F 71% 30.04 in 10.0 mi WNW 16.1 mph - 0.00 in   Overcast
2:53 AM 16.0 °F 2.3 °F 10.0 °F 77% 30.06 in 5.0 mi WNW 12.7 mph - 0.00 in Snow Light Snow
3:53 AM 16.0 °F 2.9 °F 10.9 °F 81% 30.08 in 10.0 mi West 11.5 mph - 0.00 in   Overcast
4:53 AM 17.1 °F 3.0 °F 10.9 °F 77% 30.10 in 10.0 mi WNW 13.8 mph - N/A   Overcast
5:53 AM 17.1 °F 1.5 °F 9.0 °F 71% 30.12 in 9.0 mi WNW 17.3 mph 24.2 mph 0.00 in Snow Light Snow
6:53 AM 18.0 °F 3.6 °F 8.1 °F 65% 30.14 in 9.0 mi WNW 15.0 mph - 0.00 in Snow Light Snow
7:53 AM 17.6 °F 1.7 °F 8.6 °F 68% 30.12 in 10.0 mi WNW 18.4 mph 24.2 mph N/A   Overcast
8:53 AM 18.0 °F 2.6 °F 9.0 °F 68% 30.17 in 10.0 mi NW 17.3 mph 25.3 mph 0.00 in Snow Light Snow
9:18 AM 17.6 °F 1.7 °F 8.6 °F 68% 30.14 in 7.0 mi NW 18.4 mph 26.5 mph 0.00 in Snow Light Snow
9:53 AM 18.0 °F 1.7 °F 9.0 °F 68% 30.19 in 9.0 mi NW 19.6 mph 28.8 mph 0.00 in Snow Light Snow
10:53 AM 19.4 °F 4.5 °F 10.4 °F 68% 30.16 in 9.0 mi NW 17.3 mph 26.5 mph N/A Snow Light Snow
11:53 AM 19.9 °F 4.3 °F 10.0 °F 65% 30.21 in 9.0 mi NW 19.6 mph 29.9 mph 0.00 in Snow Light Snow
12:53 PM 21.0 °F 6.2 °F 10.0 °F 63% 30.22 in 9.0 mi NW 18.4 mph 26.5 mph 0.00 in Snow Light Snow
1:06 PM 21.2 °F 8.3 °F 10.4 °F 63% 30.18 in 9.0 mi NW 13.8 mph 24.2 mph 0.00 in Snow Light Snow
1:53 PM 21.9 °F 11.0 °F 10.9 °F 63% 30.22 in 9.0 mi NW 10.4 mph 21.9 mph 0.00 in Snow Light Snow
2:53 PM 21.9 °F 9.2 °F 12.0 °F 66% 30.22 in 9.0 mi NW 13.8 mph 23.0 mph 0.00 in Snow Light Snow
3:53 PM 23.0 °F 11.1 °F 12.0 °F 63% 30.26 in 9.0 mi NW 12.7 mph - 0.00 in Snow Light Snow
4:53 PM 23.0 °F 9.6 °F 14.0 °F 68% 30.28 in 4.0 mi WNW 16.1 mph 21.9 mph 0.00 in Snow Light Snow
5:53 PM 21.9 °F 8.2 °F 15.1 °F 75% 30.29 in 3.0 mi WNW 16.1 mph 20.7 mph 0.00 in Snow Light Snow
6:35 PM 21.2 °F 7.3 °F 15.8 °F 80% 30.25 in 9.0 mi NW 16.1 mph 21.9 mph 0.00 in Snow Light Snow
6:53 PM 21.9 °F 9.2 °F 15.1 °F 75% 30.30 in 9.0 mi NW 13.8 mph 21.9 mph 0.00 in Snow Light Snow
7:53 PM 21.9 °F 7.8 °F 16.0 °F 78% 30.30 in 8.0 mi NW 17.3 mph 21.9 mph 0.00 in Snow Light Snow
8:53 PM 21.9 °F 11.0 °F 16.0 °F 78% 30.30 in 8.0 mi NW 10.4 mph 19.6 mph 0.00 in Snow Light Snow
9:53 PM 21.9 °F 9.2 °F 14.0 °F 72% 30.31 in 9.0 mi NNW 13.8 mph 21.9 mph 0.00 in Snow Light Snow
10:53 PM 21.2 °F 8.9 °F 15.8 °F 80% 30.27 in 8.0 mi NNW 12.7 mph 18.4 mph N/A Snow Light Snow
11:53 PM 21.9 °F 9.8 °F 14.0 °F 72% 30.32 in 9.0 mi North 12.7 mph 16.1 mph 0.00 in Snow Light Snow